sat.trackr.live / text

‹ back to catalog

STARLINK-5350

NORAD 56419 · 2023-061AX

PAYLOAD ACTIVE UNKNOWN

§ Identity

Operator
Country
US
Launch date
2023-05-04
Launch site
AFETR
Launch vehicle
Mass (kg)
RCS (m²)

Purposes: comms

External: N2YO · Heavens-Above · Gunter

§ Orbital elements

Epoch: 2026-05-25T04:40:34.588128Z

Period
94.27 min
Inclination
43.0021°
Eccentricity
0.0000834
Mean motion
15.27572084 rev/d
Perigee alt
482.5 km
Apogee alt
483.6 km
Semi-major
6,861.2 km
B*
1.4012e-4
RAAN
115.0929°
Arg perigee
253.1548°
Mean anomaly
106.9212°
Rev number
16,857

§ Raw data

STARLINK-53501 56419U 23061AX  26145.19484477  .00003595  00000+0  14012-3 0  99912 56419  43.0021 115.0929 0000834 253.1548 106.9212 15.27572084168576

JSON: /api/v1/satellites/56419 · /tle

For live sub-satellite position, see the globe view (requires WebGL).

§ Visibility from observer

Set your observer location to see the next 7 days of passes ≥ 10°. The values pass through the URL so the page stays shareable.

No JS? Fill the form by hand. The geolocation button needs JavaScript.